BEIDOU 20 (C18)

Last updated on Oct. 23, 2020, 5:57 a.m. UTC

1 40938U 15053A   20296.35788103 -.00000126  00000-0  00000+0 0  9991
2 40938  52.4292 282.7790 0048149 192.5426 139.5033  1.00290099 18665
UTC
Height (km)
Latitude
Longitude
Inclination
Orbital Period
UTC large
Height (km)
Speed (km/s)
/
Latitude / Longitude
Inclination (degrees)
Orbital Period (minutes)
Azimuth
Elevation
Range (km)
Doppler Factor
iOS Compass Heading
iOS Angle

Next 30 passes for location: Hong Kong

Rise time Rise Azimuth (degrees) Set time Set Azimuth (degrees) Duration Max altitude (degrees)

No matching passes for this satellites